Regional Weather Roundup
Issued by NWS

Home | Current Version | Previous Version | Text Only | Print | Product List | Glossary Off
Versions: 1 2 3 4 5 6 7 8 9 10 11 12 13 14 15 16 17 18 19 20 21 22 23 24 25 26 27 28 29 30 31 32 33 34 35 36 37 38 39 40 41 42 43 44 45 46 47 48 49 50

689
ASUS45 KABQ 272010
RWRNM
NEW MEXICO REGIONAL WEATHER ROUNDUP
NATIONAL WEATHER SERVICE ALBUQUERQUE NM
200 PM MDT WED JUL 27 2016

NOTE: "FAIR" MEANS FEW OR NO CLOUDS BELOW 12,000 FEET AGL WITH NO
       SIGNIFICANT WEATHER OR OBSTRUCTIONS TO VISION.

      THIS PRODUCT IS RELEASED AS TWO VERSIONS.  ONE VERSION NEAR
      THE TOP OF THE HOUR CONTAINING PRELIMINARY DATA FROM ALBUQUERQUE
      AND OTHER STATIONS.  A FINAL VERSION WITH ADDITIONAL DATA IS
      ISSUED ABOUT 10 MINUTES AFTER THE HOUR.

NMZ501-503-504-510>518-272100-
NORTHWEST PLATEAU/NORTHCENTRAL MOUNTAINS

CITY           SKY/WX    TMP DP  RH WIND       PRES   REMARKS
FARMINGTON     FAIR      92  42  17 S8        30.16F
LOS ALAMOS     FAIR      86  35  16 N9G16     30.31F
SANTA FE       FAIR      90  43  19 NE10      30.23F
TAOS           FAIR      86  37  17 NW13        N/A
ANGEL FIRE     PTSUNNY   72  45  37 E12G21    30.43R

$$
NMZ402-403-502-505>509-272100-
WESTCENTRAL MOUNTAINS/SOUTHWEST MOUNTAINS

CITY           SKY/WX    TMP DP  RH WIND       PRES   REMARKS
GALLUP         FAIR      92  32  12 NE20G26   30.26F
GRANTS         FAIR      91  36  14 N7G18     30.28F

$$
NMZ407-409-411-412-272100-
SOUTHERN DESERTS

CITY           SKY/WX    TMP DP  RH WIND       PRES   REMARKS
LORDSBURG      FAIR      91  55  29 CALM      30.08F
DEMING         FAIR      91  58  32 SW8       30.08F
LAS CRUCES     FAIR      87  54  31 SE6       30.12F
HOLLOMAN AFB   PTSUNNY   89  56  33 VRB7      30.08F
ALAMOGORDO     FAIR      86  57  37 SE6       30.11F
T OR C         FAIR      92  53  26 NE13      30.12F

$$
NMZ519>523-272100-
CENTRAL VALLEYS/CENTRAL HIGHLANDS

CITY           SKY/WX    TMP DP  RH WIND       PRES   REMARKS
ALBUQUERQUE    FAIR      88  53  30 VRB3      30.17F
DOUBLE EAGLE   MOSUNNY   90  54  29 E6        30.22F
MORIARTY ARPT  FAIR      87  44  22 CALM      30.25F
CLINES CORNERS FAIR      79  48  33 E7        30.32F
BELEN          FAIR      88  49  26 NW6       30.17F
SOCORRO        FAIR      90  49  24 NE5       30.14F

$$
NMZ524>526-539-540-272100-
SOUTHCENTRAL MOUNTAINS

CITY           SKY/WX    TMP DP  RH WIND       PRES   REMARKS
RUIDOSO          N/A     75  50  41 SE8       30.34F

$$
NMZ527>531-272100-
NORTHEAST HIGHLANDS/NORTHEAST PLAINS

CITY           SKY/WX    TMP DP  RH WIND       PRES   REMARKS
LAS VEGAS      PTSUNNY   82  43  25 VRB3      30.29F
RATON          FAIR      87  46  24 S8        30.22F
CLAYTON        PTSUNNY   86  57  37 SE6       30.15S

$$
NMZ532>537-272100-
EASTCENTRAL PLAINS

CITY           SKY/WX    TMP DP  RH WIND       PRES   REMARKS
TUCUMCARI      FAIR      96  49  20 SE7       30.05F
CANNON AFB     CLOUDY    73  64  72 S8        30.13F
CLOVIS AIRPORT FAIR      75  59  57 W8        30.12F

$$
NMZ028-029-538-272100-
SOUTHEAST PLAINS

CITY           SKY/WX    TMP DP  RH WIND       PRES   REMARKS
ROSWELL        FAIR      95  48  20 E9        30.05F
ARTESIA        FAIR      93  55  27 VRB5      30.05F
CARLSBAD       FAIR      94  57  28 NE8       30.02F
HOBBS          MOSUNNY   91  52  25 E9        30.08F


$$




USA.gov is the U.S. government's official web portal to all federal, state and local government web resources and services.